User: anonymous   Login
Location: Bühlhof
(48.7849°N, 8.6361°E)
Time: 12:49:45
(UTC+00:00)
Language:

Cosmos 1603 - Orbit

View from above orbital plane
View from above orbital plane
View from above satellite
View from above satellite

Ground track
Ground track

The orbit is defined by the following mean orbital elements,

1 15333U          26065.95670962 +.00000000 +00000-0 -82037-4 0 00006
2 15333  71.0234 262.0889 0018169  32.1703 328.0524 14.14501507    02
Epoch (UTC): 06 March 2026 22:57:39
Eccentricity: 0.0018169
inclination: 71.0234°
perigee height: 831 km
apogee height: 857 km
right ascension of ascending node: 262.0889°
argument of perigee: 32.1703°
revolutions per day: 14.14501507
mean anomaly at epoch: 328.0524°

The dashed part of the orbit path shows where the satellite is in the earth's shadow,  

DLR